星链-5378 (STARLINK-5378 )

导读 | 星芒AI

STARLINK-5378 是 SpaceX Starlink 卫星互联网项目中的一颗低轨通信卫星。它属于 Starlink 群体的一部分,旨在为全球用户提供高速互联网服务。该卫星采用可重复使用的设计,配备先进通信设备,运行在约 550 公里的近地轨道上。作为 Starlink 计划的组成部分,STARLINK-5378 有助于扩大网络覆盖范围,提升连接速度与稳定性,特别是在偏远和网络基础设施薄弱的地区。

基本信息
目录编号:
56139
目录名称:
STARLINK-5378
国际标识:
2023-046AZ
轨道中心:
EARTH
卫星名称:
星链-5378
卫星全名:
星链-5378 (STARLINK-5378 )
卫星状态:
已陨落 最后检测时间 2024-05-24
发射日期:
2023-03-29 UTC
国别 :
美国 (US)
星等 :
--
轨道信息
数据来源 国际轨道数据
星历时间: 2024-05-24T20:12:16+0800
轨道信息已过期534天
半长轴: 6587.788km
偏心率: 0.0006572
轨道倾角: 42.992°
近地点辐角 237.158°
升交点赤经 62.293°
平近点角 277.274°
近地点: 205.323km
远地点: 213.983km
周期: 88.689分钟
每日圈数: 16.236535
详细信息
固有亮度:
5
最大亮度:
2.5
卫星平台:
Starlink v1.5
覆盖范围:
全球
运营商:
太空探索技术公司
运营商所在国:
美国
制造商(研发单位):
太空探索技术公司
制造商所在国:
美国
使用方式:
暂无
卫星简介
星链(Starlink)计划是由太空探索技术公司(SpaceX)提出的一个巨型低轨卫星互联网星座项目,计划在2019年至2024年间在太空搭建由约1.2万颗卫星组成的“星链”网络,其中1584颗将部署在地球上空550千米处的近地轨道,并从2020年开始工作。该卫星已陨落。